Regional Weather Roundup
Issued by NWS

Home | Current Version | Previous Version | Text Only | Print | Product List | Glossary Off
Versions: 1 2 3 4 5 6 7 8 9 10 11 12 13 14 15 16 17 18 19 20 21 22 23 24 25 26 27 28 29 30 31 32 33 34 35 36 37 38 39 40 41 42 43 44 45 46 47 48 49 50

000
ASUS43 KOAX 220602
RWRNE

WEATHER ROUNDUP FOR NEBRASKA
NATIONAL WEATHER SERVICE OMAHA NE
1200 AM CST THU FEB 22 2018

NOTES: SATELLITE DATA IS BEING USED TO AUGMENT CLOUD COVER ABOVE
       12000 FEET.
       "FAIR" INDICATES FEW OR NO CLOUDS BELOW 12,000 FEET WITH NO
       SIGNIFICANT WEATHER AND/OR OBSTRUCTIONS TO VISIBILITY.


NEZ001>004-019>022-054>056-220700-
NEBRASKA PANHANDLE

CITY           SKY/WX    TMP DP  RH WIND       PRES   REMARKS
SCOTTSBLUFF    CLOUDY    12   7  80 E6        30.19F WCI   3
6HR MIN TEMP:  11; 6HR MAX TEMP:  24;

ALLIANCE       MOCLDY    11   6  81 SE10      30.19F WCI  -3
6HR MIN TEMP:  11; 6HR MAX TEMP:  22;

CHADRON        FAIR      19   8  62 S3        30.21F
6HR MIN TEMP:  -6; 6HR MAX TEMP:  19;

GORDON         MOCLDY    10   4  77 CALM      30.21F
6HR MIN TEMP:   6; 6HR MAX TEMP:  24;

KIMBALL        FAIR       8   3  78 S9        30.13S WCI  -5
SIDNEY         FAIR       8   4  83 S7        30.17F WCI  -3
6HR MIN TEMP:   7; 6HR MAX TEMP:  25;

$$

NEZ057>060-069>072-079>082-220700-
SOUTHWEST NEBRASKA

CITY           SKY/WX    TMP DP  RH WIND       PRES   REMARKS
NORTH PLATTE   LGT SNOW  21  16  81 E10       30.34F WCI  10
6HR MIN TEMP:  19; 6HR MAX TEMP:  23; 6HR PCP:  0.01;

IMPERIAL       CLOUDY    22  11  62 SE12      30.27F WCI  10
6HR MIN TEMP:  13; 6HR MAX TEMP:  23;

LEXINGTON      FLURRIES  23  17  77 E8        30.38F WCI  14
MCCOOK         CLOUDY    25   7  46 E8        30.35F WCI  16
6HR MIN TEMP:  25; 6HR MAX TEMP:  28;

OGALLALA       CLOUDY    24  14  66 SE10      30.27F WCI  13
$$

NEZ005>010-023>029-035>040-094-220700-
NORTH CENTRAL NEBRASKA

CITY           SKY/WX    TMP DP  RH WIND       PRES   REMARKS
VALENTINE      FAIR      12   5  73 CALM      30.33F
6HR MIN TEMP:   6; 6HR MAX TEMP:  24;

AINSWORTH      FAIR      10   6  83 S6        30.35F WCI   0
BROKEN BOW     CLOUDY    21  15  78 SE10      30.39R WCI  10
6HR MIN TEMP:  21; 6HR MAX TEMP:  25; 6HR PCP: TRACE;

O`NEILL        FLURRIES  19  13  77 S8        30.43S WCI   9
ORD            FLURRIES  20  15  81 SE6       30.43S WCI  12
6HR MIN TEMP:  20; 6HR MAX TEMP:  24; 6HR PCP: TRACE;

THEDFORD       FAIR      15   9  78 SE10      30.33F WCI   2
$$

NEZ041-046>049-061>064-073>077-083>087-220700-
SOUTH CENTRAL NEBRASKA

CITY           SKY/WX    TMP DP  RH WIND       PRES   REMARKS
GRAND ISLAND   CLOUDY    22  13  68 E7        30.46R WCI  13
6HR MIN TEMP:  22; 6HR MAX TEMP:  26; 6HR PCP: TRACE;

AURORA         CLOUDY    22  14  70 E7        30.46R WCI  13
HASTINGS       CLOUDY    22  10  60 E10       30.43F WCI  11
6HR MIN TEMP:  22; 6HR MAX TEMP:  26; 6HR PCP: TRACE;

HEBRON         CLOUDY    23  21  90 NE6       30.45S WCI  16
HOLDREGE       FLURRIES  23  10  56 E6        30.40R WCI  16
KEARNEY        CLOUDY    23  12  62 E9        30.43S WCI  13
YORK           CLOUDY    23  16  74 E7        30.46R WCI  15
$$

NEZ011>018-030>034-042>045-220700-
NORTHEAST NEBRASKA

CITY           SKY/WX    TMP DP  RH WIND       PRES   REMARKS
NORFOLK        CLOUDY    20  14  77 NE5       30.45F WCI  13
6HR MIN TEMP:  20; 6HR MAX TEMP:  23;

ALBION         FLURRIES  22  15  75 E5        30.45F WCI  15
BLAIR          CLOUDY    23  18  80 E6        30.50R WCI  16
COLUMBUS       CLOUDY    22  17  81 E9        30.49S WCI  12
FREMONT        CLOUDY    23  16  74 E8        30.51S WCI  14
TEKAMAH        CLOUDY    22  14  71 NE8       30.52F WCI  12
6HR MIN TEMP:  22; 6HR MAX TEMP:  25;

WAYNE          CLOUDY    20  14  78 E6        30.50R WCI  12
$$

NEZ050>053-065>068-078-088>093-220700-
SOUTHEAST NEBRASKA

CITY           SKY/WX    TMP DP  RH WIND       PRES   REMARKS
LINCOLN        LGT SNOW  23  19  85 NE9       30.50F VSB 1   WCI  13
6HR MIN TEMP:  23; 6HR MAX TEMP:  25; 6HR PCP:  0.01;

OMAHA EPPLEY   CLOUDY    24  15  68 NE5       30.54R WCI  18
6HR MIN TEMP:  24; 6HR MAX TEMP:  25;

BEATRICE       MIX PCPN  26  20  78 NE10      30.47S WCI  16
FALLS CITY     MIX PCPN  26  20  77 NE5       30.50R WCI  20
6HR MIN TEMP:  26; 6HR MAX TEMP:  28; 6HR PCP: TRACE;

NEBRASKA CITY  CLOUDY    25  22  86 NE8       30.49R WCI  17
PLATTSMOUTH    CLOUDY    24  19  82 NE8       30.50S WCI  15
$$

NEZ044-045-051>053-067-220700-
OMAHA AREA

CITY           SKY/WX    TMP DP  RH WIND       PRES   REMARKS
OMAHA EPPLEY   CLOUDY    24  15  68 NE5       30.54R WCI  18
6HR MIN TEMP:  24; 6HR MAX TEMP:  25;

BLAIR          CLOUDY    23  18  80 E6        30.50R WCI  16
FREMONT        CLOUDY    23  16  74 E8        30.51S WCI  14
MILLARD        FLURRIES  25  17  69 E5        30.53R WCI  19
OFFUTT AFB     FLURRIES  24  16  73 N6        30.51S WCI  17
PLATTSMOUTH    CLOUDY    24  19  82 NE8       30.50S WCI  15
WAHOO          CLOUDY    24  17  74 E9        30.51R WCI  14
$$




USA.gov is the U.S. government's official web portal to all federal, state and local government web resources and services.